ASTRA 2F

Last updated on Mon Sep 07 2026 00:02:58 GMT+0000 (Coordinated Universal Time)

1 38778U 12051A 26249.31224100 .00000135 00000+0 00000+0 0 9995 2 38778 0.0840 261.0842 0004108 301.7757 283.1475 1.00269039 41952
UTC large
Height (km)
Speed (km/s)
/
Latitude / Longitude
Inclination (degrees)
Orbital Period (minutes)
Azimuth
Elevation
Range (km)
Doppler Factor

Next 0 passes for location: London (51.5072 / 0.1276)

No passes found over London.
ASTRA 2F